Flag for Canada Weather past 2 weeks in Ottawa, Ontario, Canada

Now
81 °F

Passing clouds.


Feels Like: 81 °F
Forecast: N/A
Wind: 20 mph from Southwest

Location: Ottawa Int'L. Ont.

Current Time: May 27, 2015 at 6:38:13 PM

Latest Report: May 27, 2015 at 6:00 PM


Visibility: 15 mi

Pressure: 29.87 "Hg

Humidity: 51%

Dew point: 61 °F

Location of OttawaLocation

Historic Weather in Ottawa — Graph

°F

Ottawa temperature yesterday

Maximum temperature yesterday: 84 °F (at 4:00 PM)
Minimum temperature yesterday: 59 °F (at 12:46 AM)
Average temperature yesterday: 72 °F

Past Weeks' High & Low Weather Summary

 TemperatureHumidityPressure
High84 °F (May 18, 4:00 PM)100% (May 25, 2:00 PM)30.45 "Hg (May 25, 2:00 PM)
Low28 °F (May 23, 5:00 AM)22% (May 14, 3:00 PM)29.67 "Hg (May 19, 4:00 PM)
Average60 °F61%30.04 "Hg
* Reported May 12 5:00 PM — May 27 5:00 PM, Ottawa, Weather by CustomWeather, © 2015

Note: Actual official high and low records may vary slightly from our data, if they occured in-between our weather recording intervals... More about our weather records

Advertising

Ottawa weather history for previous 24 hours

 ConditionsComfort  
Time TempWeatherWind HumidityBarometerVisibility
5:00 PM
Wed, May 27
82 °FScattered clouds.16 mph48%29.86 "Hg15 mi
4:00 PM82 °FBroken clouds.20 mph51%29.87 "Hg15 mi
3:00 PM82 °FPartly sunny.20 mph51%29.89 "Hg15 mi
2:00 PM81 °FPartly sunny.16 mph58%29.91 "Hg15 mi
1:00 PM75 °FMostly cloudy.15 mph74%29.94 "Hg15 mi
12:00 PM75 °FOvercast.16 mph74%29.94 "Hg15 mi
11:00 AM73 °FPartly sunny.13 mph83%29.93 "Hg15 mi
10:00 AM73 °FLight rain. Cloudy.16 mph78%29.94 "Hg15 mi
9:00 AM73 °FOvercast.10 mph78%29.94 "Hg15 mi
8:00 AM72 °FPartly sunny.12 mph83%29.94 "Hg15 mi
7:00 AM70 °FPartly sunny.10 mph83%29.94 "Hg15 mi
6:00 AM68 °FMostly cloudy.9 mph88%29.94 "Hg15 mi
5:00 AM68 °FPassing clouds.8 mph88%29.93 "Hg15 mi
4:00 AM68 °FPassing clouds.7 mph88%29.93 "Hg15 mi
3:00 AM68 °FPassing clouds.7 mph88%29.95 "Hg15 mi
2:00 AM66 °FPassing clouds.5 mph88%29.97 "Hg15 mi
1:00 AM68 °FPassing clouds.6 mph88%29.97 "Hg15 mi
12:00 AM70 °FPassing clouds.5 mph83%29.98 "Hg15 mi
11:00 PM
Tue, May 26
70 °FPassing clouds.6 mph83%29.99 "Hg15 mi
10:00 PM72 °FPassing clouds.7 mph78%29.98 "Hg15 mi
9:00 PM75 °FOvercast.7 mph65%29.97 "Hg15 mi
8:00 PM79 °FOvercast.12 mph61%29.97 "Hg15 mi
7:00 PM81 °FOvercast.12 mph58%29.96 "Hg15 mi
6:00 PM81 °FBroken clouds.15 mph54%29.98 "Hg15 mi
Weather by CustomWeather, © 2015

See weather overviewHow to use our weather pages